COMPLETED DISPATCHED CALLS FOR SERVICE

Welcome to the Jacksonville Sheriff’s Office Completed Dispatched Calls for Service webpage. This page displays calls for service made to the Jacksonville Sheriff's Office that have recently been completed. The data on this page is refreshed automatically.

This information is not intended to be used as official crime data. This program does not provide information about all crimes, and excludes specific incidents such as sexual assaults and child abuse.

Disclaimer: The Jacksonville Sheriff's Office makes every effort to produce and publish current and accurate information. No warranties, expressed or implied, are provided for the data herein, its use, or its interpretation. The services provided are for informational purposes only and should not be relied on for any type of legal action.

Last refreshed 6/22 14:48:12

Incident # Dispatched Block Address Signal Call Description  
202400382445 6-22 13:07 8300 LONGSPUR AVE 22 DOMESTIC
202400382432 6-22 12:55 8800 IVEY RD 1050 TRAFFIC STOP
202400382428 6-22 12:52 JTB E OFF RAMP / KERNAN BLVD S 4 53 TRAFFIC CRASH PERSON INJURED
202400382411 6-22 12:38 8400 IVEY RD 1050 TRAFFIC STOP
202400382387 6-22 12:31 APPROX LOC:209 50TH ST E 37 UNVERIFIED 911 CALL
202400382383 6-22 12:26 7900 MERRILL RD 28 DELIVER MESSAGE
202400382341 6-22 12:17 6600 NEW KINGS RD 0 13 ARMED SUSPICIOUS PERSON
202400382342 6-22 12:08 ST AUGUSTINE RD / EMERSON ST 73 DRUG INVESTIGATION
202400382356 6-22 12:05 8200 PHILIPS HWY 37 UNVERIFIED 911 CALL
202400382354 6-22 12:04 MAUDE RD / KENNY RD 19 ANIMAL INVESTIGATION
202400382352 6-22 12:04 600 8TH ST W 54 ILLEGALLY PARKED CAR
202482011350 6-22 12:01 500 ATLANTIC BLVD 27 MENTALLY ILL PERSON
202400382344 6-22 11:59 6300 MORSE AVE 76 ASSIST OTHER AGENCY
202400382249 6-22 11:54 6900 MERRILL RD 27 MENTALLY ILL PERSON
202400382276 6-22 11:53 DEVONSHIRE BLVD / PORTSMOUTH AVE 9 THEFT
202400382319 6-22 11:51 5200 SHAD RD 4 AUTO CRASH
202400382324 6-22 11:50 12900 BROXTON BAY DR 63 DISPUTE
202400382075 6-22 11:49 1300 DUNN AVE 22 DOMESTIC
202400382312 6-22 11:47 43RD ST W / PEARL ST N 64 NOISE COMPLAINT
202400382242 6-22 11:47 7100 IRVING SCOTT DR 19 ANIMAL INVESTIGATION
202400382146 6-22 11:45 5700 TEMPEST ST 9 THEFT
202400382304 6-22 11:40 500 LANE AVE S 54 ILLEGALLY PARKED CAR
202400382232 6-22 11:39 8800 NORMANDY BLVD 76 ASSIST OTHER AGENCY
202400382313 6-22 11:36 2600 TULSA RD N 22 DOMESTIC
202400382314 6-22 11:35 800 HAMMOND BLVD 22 DOMESTIC
202400382266 6-22 11:30 6000 COMMODORE DR 1066 CANCEL
202400382269 6-22 11:29 6800 NORMANDY BLVD 9 THEFT
202400382261 6-22 11:29 6300 COLLINS RD 23I ROBBERY INDIVIDUAL
202400382302 6-22 11:27 8500 ARGYLE FOREST BLVD 13 SUSPICIOUS PERSON
202400382297 6-22 11:27 5900 MARTIN LUTHER KING DR 63 DISPUTE
202400382246 6-22 11:26 1200 CHALLEN AVE 63 DISPUTE
202400382303 6-22 11:24 1300 BROOKWOOD FOREST BLVD 10 VEHICLE THEFT
202400382221 6-22 11:23 1000 DANCY ST 1066 CANCEL
202400382263 6-22 11:19 2000 BUCKMAN ST 10 VEHICLE THEFT
202400382287 6-22 11:18 1700 HODGES BLVD 22 DOMESTIC
202400382254 6-22 11:16 0 RANCH RD 33 DISCHARGING OF FIREARM
202400382283 6-22 11:13 100 LAVILLA CENTER DR 60 SUICIDE OR ATTEMPT
202400382272 6-22 11:10 5000 SAN JOSE BLVD 3 HIT AND RUN CRASH
202400382278 6-22 11:10 100 LAKE RUN BLVD 22 DOMESTIC
202400382271 6-22 11:09 GRACE LN / GRACE TER 13 SUSPICIOUS PERSON
202400382210 6-22 11:03 7100 MERRILL RD 63 DISPUTE
202400382262 6-22 11:00 1800 CLEVELAND ST 63 DISPUTE
202400382256 6-22 10:59 6600 BENNETT CREEK DR 1066 CANCEL
202400382228 6-22 10:50 1500 LANE AVE S 1066 CANCEL
202400382239 6-22 10:49 14300 TIKI LN 76 ASSIST OTHER AGENCY
202400382171 6-22 10:48 9400 DEVONSHIRE BLVD 63 DISPUTE
202400382225 6-22 10:45 7700 NORMANDY BLVD 63 DISPUTE
202400382219 6-22 10:44 4700 SECRET HARBOR DR N 50 FOUND/ABANDONED PROPERTY
202400382226 6-22 10:44 5700 MONCRIEF RD W 76 ASSIST OTHER AGENCY
202400382227 6-22 10:44 PRITCHARD RD / OLD KINGS RD 1050 TRAFFIC STOP
202400382216 6-22 10:42 3400 GRENOBLE DR 68 CON GAME/FLIM FLAM
202400382186 6-22 10:35 3200 DE CARLO LN 22 DOMESTIC
202400382124 6-22 10:35 900 DUNN AVE 63 DISPUTE
202400382205 6-22 10:34 1500 21ST ST E 13 SUSPICIOUS PERSON
202400382214 6-22 10:34 100 8TH ST E 14B VANDALISM BUSINESS
202400382211 6-22 10:31 8200 NATIONS WAY 13 SUSPICIOUS PERSON
202400382181 6-22 10:26 6800 NORMANDY BLVD 9 THEFT
202400382209 6-22 10:26 6300 ARLINGTON EXPY 27 MENTALLY ILL PERSON
202400382206 6-22 10:25 1500 CLARK ST 1066 CANCEL
202400382207 6-22 10:25 9400 103RD ST 76 ASSIST OTHER AGENCY
202400382189 6-22 10:25 2100 MINERVA AVE 27 MENTALLY ILL PERSON
202400382113 6-22 10:23 1600 EDGEWOOD AVE W 63 DISPUTE
202400382202 6-22 10:19 BEACH BLVD / HODGES BLVD 68 CON GAME/FLIM FLAM
202400382167 6-22 10:19 5400 SHERI LN 1066 CANCEL
202400382199 6-22 10:19 700 VIRGINIA ST 76 ASSIST OTHER AGENCY
202400382144 6-22 10:16 3000 TURTON AVE 13 SUSPICIOUS PERSON
202400382190 6-22 10:14 8100 ALDERMAN RD 56 JUVENILE COMPLAINT
202400382162 6-22 10:14 8000 OLD KINGS RD 22 DOMESTIC
202400382154 6-22 10:13 8700 GUM ST 16 ROAD OBSTRUCTION
202400382182 6-22 10:10 800 GRANVILLE RD 2288 DOMESTIC DISPUTE WITH/ASSAULT
202400382174 6-22 10:09 6300 SAUTERNE DR 9P THEFT IN PROGRESS
202400382152 6-22 10:07 5500 UNIVERSITY CLUB BLVD N 64 NOISE COMPLAINT
202400382004 6-22 10:00 1400 23RD ST W 6388 DISPUTE WITH ASSAULT
202400382141 6-22 09:53 6900 MORSE AVE 33 DISCHARGING OF FIREARM
202400382149 6-22 09:53 2100 LEONID ROAD 76 ASSIST OTHER AGENCY
202400382133 6-22 09:53 5800 ATLANTIC BLVD 11 ABANDONED VEHICLE
202400382148 6-22 09:52 10200 WHISPERING FOREST DR 22 DOMESTIC
202400382139 6-22 09:49 2400 SEAWAY ST 54 ILLEGALLY PARKED CAR
202400382090 6-22 09:46 2300 2ND AVE 19 ANIMAL INVESTIGATION
202400382131 6-22 09:41 3300 POINT LOBOS TRL 13 SUSPICIOUS PERSON
202400382129 6-22 09:40 7600 103RD ST 62 PERSON CUT
202400382125 6-22 09:39 4600 CLAPBOARD CROSSING WAY 22 DOMESTIC
202400382084 6-22 09:35 11000 COLONIAL TAVERN LN 73 DRUG INVESTIGATION
202400382115 6-22 09:34 3200 MABRY TER 21R BURGLARY RESIDENCE
202400382083 6-22 09:29 3100 EDGEWOOD AVE N 3 HIT AND RUN CRASH
202400382108 6-22 09:26 1000 ASSISI LN 0 63 ARMED DISPUTE
202400382109 6-22 09:25 9800 HUTCHINSON PARK DR 9P THEFT IN PROGRESS
202400382107 6-22 09:23 6800 CINDERELLA RD 0 22 DOMESTIC DISTURBANCE W/WEAPON
202400382085 6-22 09:22 12000 MARLDON LN 2 22 DOMESTIC DISTURBANCE
202400382099 6-22 09:17 8500 BAYMEADOWS RD 4 AUTO CRASH
202400382097 6-22 09:14 HARLOW BLVD / JAMMES RD 12 RECKLESS DRIVER
202400382067 6-22 08:59 3900 HENDRICKS AVE 63 DISPUTE
202400382055 6-22 08:51 8800 PHILIPS HWY 1050 TRAFFIC STOP
202400382050 6-22 08:40 3100 PHILIPS HWY 37 UNVERIFIED 911 CALL
202400382048 6-22 08:39 8900 SHINDLER CROSSING DR 2288 DOMESTIC DISPUTE WITH/ASSAULT
202400382040 6-22 08:34 900 DUNN AVE 63 DISPUTE
202400382036 6-22 08:33 1600 28TH ST W 21R BURGLARY RESIDENCE
202400382027 6-22 08:30 1100 BEAVER ST W 63 DISPUTE
202400382034 6-22 08:29 3000 TAMAYA BLVD 27 MENTALLY ILL PERSON
202400382030 6-22 08:24 2000 SOTTERLEY LN 64 NOISE COMPLAINT
202400382039 6-22 08:24 700 OCEAN ST N 26C CARDIAC AED
202400382016 6-22 08:04 12300 RALEIGH RIDGE DR S 76 ASSIST OTHER AGENCY
202400382009 6-22 08:04 500 61ST ST W 22 DOMESTIC
202400382005 6-22 08:03 600 STOCKTON ST 63 DISPUTE
202400381993 6-22 08:01 TIMUQUANA RD / CATOMA ST 1050 TRAFFIC STOP
202400382006 6-22 07:58 300 UNIVERSITY BLVD N 63 DISPUTE
202400382002 6-22 07:55 4100 PHILIPS HWY 63 DISPUTE
202400382001 6-22 07:53 15100 NORMANDY BLVD 27 MENTALLY ILL PERSON
202400381989 6-22 07:53 BAISDEN RD / CLAUDIA DR S 50 FOUND/ABANDONED PROPERTY
202400381985 6-22 07:51 9100 WOLLITZ PLZ 37 UNVERIFIED 911 CALL
202400381990 6-22 07:48 2500 KING LOUIS DR 63 DISPUTE
202400381996 6-22 07:48 11800 BEACH BLVD 9P THEFT IN PROGRESS
202400381954 6-22 07:46 5600 EDENFIELD RD 21C BURGLARY CONVEYANCE
202400381952 6-22 07:45 3800 ANDERSON WOODS DR 11 ABANDONED VEHICLE
202400381988 6-22 07:40 1100 KINGS RD 21B BURGLARY BUSINESS
202400381982 6-22 07:36 5300 NORMANDY BLVD 21B BURGLARY BUSINESS
202400381956 6-22 07:23 12200 ATLANTIC BLVD 28 DELIVER MESSAGE
202400381955 6-22 07:17 3600 PHILIPS HWY 63 DISPUTE
202400381940 6-22 07:06 300 MONUMENT RD 21C BURGLARY CONVEYANCE
202400381922 6-22 07:01 1300 UNIVERSITY BLVD N 63 DISPUTE
202400381890 6-22 07:00 5100 SHENANDOAH AVE 6388 DISPUTE WITH ASSAULT
202400381918 6-22 06:59 7700 INVERMERE BLVD 13 SUSPICIOUS PERSON
202400381925 6-22 06:56 8000 SOUTHSIDE BLVD 2288 DOMESTIC DISPUTE WITH/ASSAULT
202400381935 6-22 06:55 12700 AZTEC DR N 19 ANIMAL INVESTIGATION
202400381929 6-22 06:51 600 EDGEWOOD AVE N 21B BURGLARY BUSINESS
202400381931 6-22 06:50 600 21ST ST W 60 SUICIDE OR ATTEMPT
202400381921 6-22 06:37 1000 EDGEWOOD AVE N 76 ASSIST OTHER AGENCY
202400381907 6-22 06:28 ELLIS RD S / RAMONA BLVD 16 ROAD OBSTRUCTION
202400381913 6-22 06:25 6100 COLLINS RD 21RJ BURGLARY RESIDENCE JUST OCCURRED
202400381910 6-22 06:23 900 BRIDIER ST 63 DISPUTE
202400381901 6-22 06:22 2800 MONCRIEF RD 21CJ BURGLARY CONVEYANCE JUST OCCURRED
202400381903 6-22 06:12 EDGEWOOD AVE W / LEM TURNER RD 4 53 TRAFFIC CRASH PERSON INJURED
202400381894 6-22 06:06 700 HURON ST 21BJ BURGLARY BUSINESS JUST OCCURRED
202400381857 6-22 05:57 800 CASSAT AVE 21B BURGLARY BUSINESS
202400381882 6-22 05:47 300 9TH ST W 76 ASSIST OTHER AGENCY
202400381842 6-22 05:39 4800 MONCRIEF RD 22 DOMESTIC
202400381853 6-22 05:36 600 EDGEWOOD AVE N 21B BURGLARY BUSINESS
202400381871 6-22 05:35 1000 EDGEWOOD AVE N 9 THEFT
202400381872 6-22 05:32 ST AUGUSTINE RD / LOHMAN ST 33 DISCHARGING OF FIREARM
202400381870 6-22 05:30 100 BUCKMAN BRG N 4 AUTO CRASH
202400381855 6-22 05:28 10600 WATERFIELD RD 9P THEFT IN PROGRESS
202400381865 6-22 05:28 5600 MORET DR E 13 SUSPICIOUS PERSON
202400381861 6-22 05:25 3200 DE CARLO LN 1066 CANCEL
202400381849 6-22 05:09 3100 EMERSON ST 63 DISPUTE
202400381825 6-22 05:04 6700 LANGFORD ST 63 DISPUTE
202400381838 6-22 05:01 8000 COLLINS RD 63 DISPUTE
202400381834 6-22 04:50 3100 POST ST 2 22 DOMESTIC DISTURBANCE
202400381832 6-22 04:47 6500 MERRILL RD 76 ASSIST OTHER AGENCY
202400381833 6-22 04:46 2500 SPRING LAKE RD 60 SUICIDE OR ATTEMPT
202400381820 6-22 04:37 3600 KERNAN BLVD S 88P ASSAULT IN PROGRESS
202400381818 6-22 04:31 12600 DEEDER LN 13 SUSPICIOUS PERSON
202400381805 6-22 04:14 MERRILL RD / ROGERO RD 76 ASSIST OTHER AGENCY
202482011337 6-22 04:13 200 CAMELIA ST 63 DISPUTE
202400381810 6-22 04:13 6400 103RD ST 49 REPORT TO HOSPITAL
202400381804 6-22 04:12 3400 SALAND WAY 13 SUSPICIOUS PERSON
202400381808 6-22 04:11 30TH ST W / MAIN ST N 13 SUSPICIOUS PERSON
202400381749 6-22 04:11 16200 DOWING CREEK DR 3 HIT AND RUN CRASH
202400381806 6-22 04:07 5200 NORMANDY BLVD 21B BURGLARY BUSINESS
202400381755 6-22 04:01 3100 TALL PINE LN W 64 NOISE COMPLAINT
202400381791 6-22 03:57 1000 EDGEWOOD AVE N 2 63 DISPUTE IMPAIRED/INTOXICATED
202400381783 6-22 03:55 1000 AIRPORT RD 22 DOMESTIC
202400381800 6-22 03:53 1200 PIPPIN ST 13 SUSPICIOUS PERSON
202400381754 6-22 03:51 2000 MAYPORT RD 63 DISPUTE
202400381784 6-22 03:48 9300 103RD ST 88J ASSAULT JUST OCCURRED
202400381789 6-22 03:45 7900 SOUTHSIDE BLVD 13 SUSPICIOUS PERSON
202400381750 6-22 03:44 12700 ASHBROOK CIR W 63 DISPUTE
202400381793 6-22 03:43 800 DUNN AVE 33 DISCHARGING OF FIREARM
202400381690 6-22 03:42 7800 ALDERMAN RD 64 NOISE COMPLAINT
202400381616 6-22 03:41 14300 CHERRY LAKE DR W 13 SUSPICIOUS PERSON
202400381768 6-22 03:32 3600 RING LN 37 UNVERIFIED 911 CALL
202400381774 6-22 03:27 12900 PALMETTO BLUFF DR 57 PERSON CALLING FOR HELP
202400381780 6-22 03:24 5700 CASTELLANO AVE 1066 CANCEL
202400381670 6-22 03:20 10500 VALIDUS DR 63 DISPUTE
202400381778 6-22 03:19 POST ST / MAY ST 14C VANDALISM CONVEYANCE
202400381776 6-22 03:16 CATOMA ST / ORTEGA FARMS BLVD 57 PERSON CALLING FOR HELP
202400381773 6-22 03:14 11600 FRANCIS DRAKE DR 21RP BURGLARY RESIDENCE IN PROGRESS
202400381766 6-22 03:09 13900 BARTRAM PARK BLVD 64 NOISE COMPLAINT
202400381647 6-22 03:02 10200 WHISPERING FOREST DR 10 VEHICLE THEFT
202400381728 6-22 03:02 6600 ARLINGTON RD 27 MENTALLY ILL PERSON
202400381752 6-22 03:00 10000 SKINNER LAKE DR 22 DOMESTIC
202400381584 6-22 02:59 400 CANDLEBARK DR 56 JUVENILE COMPLAINT
202400381759 6-22 02:59 8400 BLANDING BLVD 22 DOMESTIC
202400381741 6-22 02:58 8000 BAYMEADOWS CIR W 64 NOISE COMPLAINT
202400381762 6-22 02:52 1700 DIBBLE CIR E 27 MENTALLY ILL PERSON
202400381745 6-22 02:52 5300 110TH ST 63 DISPUTE
202400381722 6-22 02:50 MT PLEASANT RD / GIRVIN RD 4 53 TRAFFIC CRASH PERSON INJURED
202400381756 6-22 02:43 15900 BAINEBRIDGE DR 2 63 DISPUTE IMPAIRED/INTOXICATED
202400381746 6-22 02:42 500 ADAMS ST E 73 DRUG INVESTIGATION
202400381623 6-22 02:38 I95 N OFF RAMP / BOWDEN RD 73 DRUG INVESTIGATION
202400381622 6-22 02:38 I95 N OFF RAMP / BOWDEN RD 2288 DOMESTIC DISPUTE WITH/ASSAULT
202400381751 6-22 02:33 3000 MAIN ST N 13 SUSPICIOUS PERSON
202400381743 6-22 02:33 7300 PAPRIKA CT 63 DISPUTE
202400381748 6-22 02:29 14000 BEACH BLVD 5388 ASSAULT INVOLVING INJURY
202400381737 6-22 02:24 3000 BELDEN ST 2 63 DISPUTE IMPAIRED/INTOXICATED
202482011335 6-22 02:24 1600 LINKSIDE DR 13 SUSPICIOUS PERSON
202400381738 6-22 02:24 3100 POST ST 2288 DOMESTIC DISPUTE WITH/ASSAULT
202400381742 6-22 02:21 13700 BEACH BLVD 3388 DISCHARGING FIREARM AT PERSON
202400381744 6-22 02:21 5900 ORTEGA LAKE DR 13 SUSPICIOUS PERSON
202400381739 6-22 02:18 2200 FOREST HILLS RD 33 DISCHARGING OF FIREARM
202400381644 6-22 02:17 8700 KERSEY DR 64 NOISE COMPLAINT
202400381560 6-22 02:16 11TH AVE / LOWES PL 64 NOISE COMPLAINT
202400381736 6-22 02:15 8200 DIX ELLIS TRL 76 ASSIST OTHER AGENCY
202400381730 6-22 02:11 1900 UNIVERSITY BLVD S 55 HOLDING ONE
202400381731 6-22 02:08 PHILIPS HWY / PUTNAM AVE 5388 ASSAULT INVOLVING INJURY
202400381727 6-22 02:07 900 MAYNARD ST 56 JUVENILE COMPLAINT
202400381723 6-22 02:05 EMERSON ST / I95 N OFF RAMP 1050 TRAFFIC STOP
202400381709 6-22 02:04 3400 SOUTHSIDE BLVD 4 AUTO CRASH
202400381721 6-22 02:00 8500 ARGYLE BUSINESS LOOP 63 DISPUTE